Josephine Anne — WDD9858 — position and weather

sailwx.info

Track history (hours):
 
Tides and Currents Weather Stations Pressure Air Temp Water Temp Dewpoint Dewpoint Depression Visibility Wind Speed Wind Dir Waves Ship Positions

Josephine Anne

Owner: E.N. Bisso & Son, Inc., Metairie, LA. More information available from US FCC via Universal Licensing System and Coast Guard Vessel Documentation Center.

Last reported at 2014-Oct-31 13:30 UTC. Time now 2014-Oct-31 22:12 UTC.
Position N 29°57' W 090°01'.

Length 29 m; draft 4.3 m.

Type: Tug. MMSI: 367317270.

Date/timePositionNaut miles runAvg speedWind from/ knotsBaromVisibWave heightAir tempDewpointWater temp
2014-Oct-31 13:30N 29°57' W 090°01'0 0.0
2014-Oct-31 12:32N 29°57' W 090°01'0 0.0
2014-Oct-31 11:29N 29°57' W 090°01'0 0.0
2014-Oct-31 10:32N 29°57' W 090°01'0 0.0
2014-Oct-31 09:32N 29°57' W 090°01'0 0.0
2014-Oct-31 08:31N 29°57' W 090°01'0 0.0
2014-Oct-31 07:30N 29°57' W 090°01'3 3.2
2014-Oct-31 06:29N 29°55' W 089°58'1 0.5
2014-Oct-31 03:21N 29°55' W 089°56'4 1.1
2014-Oct-31 00:08N 29°57' W 090°00'1 1.9
2014-Oct-30 23:33N 29°57' W 090°01'0 0.0
2014-Oct-30 22:27N 29°57' W 090°01'0 0.0
2014-Oct-30 15:30N 29°57' W 090°01'3 0.4
2014-Oct-30 06:26N 29°55' W 090°04'3 1.1
2014-Oct-30 03:25N 29°57' W 090°01'2 2.2
2014-Oct-30 02:21N 29°57' W 090°04'3 1.3
2014-Oct-30 00:08N 29°55' W 090°06'0 0.0
2014-Oct-29 23:23N 29°55' W 090°06'0 0.0
2014-Oct-29 21:32N 29°55' W 090°06'27 0.8
2014-Oct-28 10:18N 30°03' W 090°36'25 2.1
2014-Oct-27 22:31N 29°55' W 090°08'3 3.4
2014-Oct-27 21:32N 29°55' W 090°04'2 1.7
2014-Oct-27 20:24N 29°54' W 090°06'1 0.5
2014-Oct-27 19:25N 29°55' W 090°06'2 2.4
2014-Oct-27 18:32N 29°55' W 090°04'3 2.8
2014-Oct-27 17:29N 29°55' W 090°07'6 0.4
2014-Oct-27 00:17N 29°56' W 089°60'0 0.0
2014-Oct-26 23:30N 29°56' W 089°60'3 1.7
2014-Oct-26 21:28N 29°56' W 090°04'2 0.7
2014-Oct-26 18:15N 29°58' W 090°02'2 0.1
2014-Oct-25 16:32N 29°56' W 090°04'1 0.7
2014-Oct-25 14:33N 29°55' W 090°05'0 0.0
2014-Oct-25 13:33N 29°55' W 090°05'0 0.0
2014-Oct-25 12:33N 29°55' W 090°05'0 0.0
2014-Oct-25 11:32N 29°55' W 090°05'0 0.0
2014-Oct-25 10:29N 29°55' W 090°05'0 0.0
2014-Oct-25 09:27N 29°55' W 090°05'1 0.6
2014-Oct-25 08:32N 29°55' W 090°05'0 0.2
2014-Oct-25 07:33N 29°55' W 090°05'0 0.4
2014-Oct-25 06:33N 29°55' W 090°05'1 1.3
2014-Oct-25 05:31N 29°56' W 090°04'3 0.3
2014-Oct-24 20:24N 29°57' W 090°01'23 1.9
2014-Oct-24 08:16N 29°60' W 090°27'5 6.8
2014-Oct-24 07:28N 29°56' W 090°22'12 0.9
2014-Oct-23 18:33N 29°55' W 090°08'9 1.5
2014-Oct-23 12:31N 29°57' W 090°19'9 1.5
2014-Oct-23 06:33N 29°55' W 090°08'1 0.4
2014-Oct-23 04:32N 29°56' W 090°08'  
Track history (hours):
 
Tides and Currents Weather Stations Pressure Air Temp Water Temp Dewpoint Dewpoint Depression Visibility Wind Speed Wind Dir Waves Ship Positions

Josephine Anne

Owner: E.N. Bisso & Son, Inc., Metairie, LA. More information available from US FCC via Universal Licensing System and Coast Guard Vessel Documentation Center.

Last reported at 2014-Oct-31 13:30 UTC. Time now 2014-Oct-31 22:12 UTC.
Position N 29°57' W 090°01'.

Length 29 m; draft 4.3 m.

Type: Tug. MMSI: 367317270.

Date/timePositionNaut miles runAvg speedWind from/ knotsBaromVisibWave heightAir tempDewpointWater temp
2014-Oct-31 13:30N 29°57' W 090°01'0 0.0
2014-Oct-31 12:32N 29°57' W 090°01'0 0.0
2014-Oct-31 11:29N 29°57' W 090°01'0 0.0
2014-Oct-31 10:32N 29°57' W 090°01'0 0.0
2014-Oct-31 09:32N 29°57' W 090°01'0 0.0
2014-Oct-31 08:31N 29°57' W 090°01'0 0.0
2014-Oct-31 07:30N 29°57' W 090°01'3 3.2
2014-Oct-31 06:29N 29°55' W 089°58'1 0.5
2014-Oct-31 03:21N 29°55' W 089°56'4 1.1
2014-Oct-31 00:08N 29°57' W 090°00'1 1.9
2014-Oct-30 23:33N 29°57' W 090°01'0 0.0
2014-Oct-30 22:27N 29°57' W 090°01'0 0.0
2014-Oct-30 15:30N 29°57' W 090°01'3 0.4
2014-Oct-30 06:26N 29°55' W 090°04'3 1.1
2014-Oct-30 03:25N 29°57' W 090°01'2 2.2
2014-Oct-30 02:21N 29°57' W 090°04'3 1.3
2014-Oct-30 00:08N 29°55' W 090°06'0 0.0
2014-Oct-29 23:23N 29°55' W 090°06'0 0.0
2014-Oct-29 21:32N 29°55' W 090°06'27 0.8
2014-Oct-28 10:18N 30°03' W 090°36'25 2.1
2014-Oct-27 22:31N 29°55' W 090°08'3 3.4
2014-Oct-27 21:32N 29°55' W 090°04'2 1.7
2014-Oct-27 20:24N 29°54' W 090°06'1 0.5
2014-Oct-27 19:25N 29°55' W 090°06'2 2.4
2014-Oct-27 18:32N 29°55' W 090°04'3 2.8
2014-Oct-27 17:29N 29°55' W 090°07'6 0.4
2014-Oct-27 00:17N 29°56' W 089°60'0 0.0
2014-Oct-26 23:30N 29°56' W 089°60'3 1.7
2014-Oct-26 21:28N 29°56' W 090°04'2 0.7
2014-Oct-26 18:15N 29°58' W 090°02'2 0.1
2014-Oct-25 16:32N 29°56' W 090°04'1 0.7
2014-Oct-25 14:33N 29°55' W 090°05'0 0.0
2014-Oct-25 13:33N 29°55' W 090°05'0 0.0
2014-Oct-25 12:33N 29°55' W 090°05'0 0.0
2014-Oct-25 11:32N 29°55' W 090°05'0 0.0
2014-Oct-25 10:29N 29°55' W 090°05'0 0.0
2014-Oct-25 09:27N 29°55' W 090°05'1 0.6
2014-Oct-25 08:32N 29°55' W 090°05'0 0.2
2014-Oct-25 07:33N 29°55' W 090°05'0 0.4
2014-Oct-25 06:33N 29°55' W 090°05'1 1.3
2014-Oct-25 05:31N 29°56' W 090°04'3 0.3
2014-Oct-24 20:24N 29°57' W 090°01'23 1.9
2014-Oct-24 08:16N 29°60' W 090°27'5 6.8
2014-Oct-24 07:28N 29°56' W 090°22'12 0.9
2014-Oct-23 18:33N 29°55' W 090°08'9 1.5
2014-Oct-23 12:31N 29°57' W 090°19'9 1.5
2014-Oct-23 06:33N 29°55' W 090°08'1 0.4
2014-Oct-23 04:32N 29°56' W 090°08'  

Dump ship's entire track history